Location: Corcelles
(46.1547°N, 4.7234°E)
Time: 00:34:19
(UTC+00:00)

Cosmos 540 Rocket - Pass Details

Date: 14 July 2020
Orbit: 740 x 753 km, 74.1° (Epoch: 03 August)

Event Time Altitude Azimuth Distance (km) Brightness Sun altitude
Rises 02:50:15 0° 341° (NNW) 3,199 7.1 -10.6°
Reaches altitude 10° 02:52:40 10° 345° (NNW) 2,273 6.4 -10.3°
Maximum altitude 02:57:44 58° 65° (ENE) 873 4.2 -9.7°
Drops below altitude 10° 03:02:48 10° 144° (SE) 2,266 5.9 -9.1°
Sets 03:05:12 0° 149° (SSE) 3,188 6.6 -8.8°
